Location: Banios
(43.0451°N, 0.2335°E)
Time: 02:24:49
(UTC+00:00)

Tiros 1 - Visible Passes

Search period start: 12 May 2021 00:00
Search period end: 22 May 2021 00:00
Orbit: 630 x 664 km, 48.4° (Epoch: 11 May)

Date Brightness Start Highest point End Pass type
(mag) Time Alt. Az. Time Alt. Az. Time Alt. Az.
12 May 8.8 00:40:31 25° E 00:40:31 25° E 00:42:43 10° ENE visible
12 May 7.6 02:18:09 30° W 02:20:20 59° NNW 02:25:02 10° ENE visible
12 May 8.3 03:58:30 10° WNW 04:03:04 43° N 04:07:35 10° ENE visible
13 May 7.5 01:04:50 61° ENE 01:04:50 61° ENE 01:08:48 10° ENE visible
13 May 8.1 02:42:28 13° W 02:46:32 46° N 02:51:07 10° ENE visible
13 May 9.4 23:51:30 15° ENE 23:51:30 15° ENE 23:52:27 10° ENE visible
14 May 7.5 01:29:07 50° WNW 01:30:04 62° NNW 01:34:48 10° ENE visible
14 May 8.3 03:08:13 10° WNW 03:12:48 43° N 03:17:20 10° ENE visible
15 May 8.3 00:15:43 36° ENE 00:15:43 36° ENE 00:18:34 10° ENE visible
15 May 8.1 01:53:20 21° WNW 01:56:16 47° N 02:00:52 10° ENE visible
15 May 8.1 03:34:24 10° WNW 03:39:03 50° NNE 03:43:39 10° E visible
16 May 7.5 00:39:50 64° NNW 00:39:50 64° NNW 00:44:34 10° ENE visible
16 May 8.3 02:17:56 10° WNW 02:22:32 43° N 02:27:04 10° ENE visible
16 May 7.6 04:00:26 10° WNW 04:05:13 70° NNE 04:09:55 10° ESE visible
16 May 8.8 23:26:14 26° ENE 23:26:14 26° ENE 23:28:20 10° ENE visible
17 May 8.0 01:03:50 28° WNW 01:06:00 48° N 01:10:38 10° ENE visible
17 May 8.1 02:44:08 10° WNW 02:48:47 49° N 02:53:24 10° E visible
17 May 7.5 23:49:59 63° NNE 23:49:59 63° NNE 23:54:20 10° ENE visible
18 May 8.3 01:27:39 10° WNW 01:32:15 43° N 01:36:49 10° ENE visible
18 May 7.6 03:10:11 10° WNW 03:14:57 66° NNE 03:19:41 10° ESE visible
18 May 8.4 22:35:37 30° ENE 22:35:37 30° ENE 22:38:05 10° ENE visible
19 May 8.0 00:13:07 24° WNW 00:15:43 49° N 00:20:23 10° ENE visible
19 May 8.1 01:53:52 10° WNW 01:58:31 48° N 02:03:08 10° E visible
19 May 7.1 03:36:11 10° WNW 03:40:58 77° SSW 03:45:42 10° SE visible
19 May 7.7 21:12:55 10° SSW 21:17:16 35° SE 21:21:37 10° ENE visible
19 May 7.4 22:54:28 10° WSW 22:59:17 70° NNW 23:04:06 10° ENE visible
20 May 8.3 00:37:22 10° WNW 00:41:58 43° N 00:46:33 10° ENE visible
20 May 7.6 02:19:56 10° WNW 02:24:42 64° NNE 02:29:25 10° E visible
20 May 8.7 19:58:43 10° SSE 20:01:30 15° SE 20:04:17 10° E visible
20 May 7.1 21:38:17 10° SW 21:43:03 67° SSE 21:47:50 10° ENE visible
20 May 8.0 23:20:45 10° W 23:25:27 50° NNW 23:30:08 10° ENE visible
21 May 8.2 01:03:36 10° WNW 01:08:15 47° N 01:12:51 10° E visible
21 May 7.1 02:45:56 10° WNW 02:50:44 81° SSW 02:55:29 10° ESE visible
21 May 7.9 20:22:48 10° SSW 20:27:03 32° SE 20:31:19 10° ENE visible
21 May 7.3 22:04:13 10° WSW 22:09:02 74° NNW 22:13:51 10° ENE visible
21 May 8.3 23:47:05 10° WNW 23:51:41 44° N 23:56:17 10° ENE visible
